Regional Weather Roundup
Issued by NWS

Home | Current Version | Previous Version | Text Only | Print | Product List | Glossary Off
Versions: 1 2 3 4 5 6 7 8 9 10 11 12 13 14 15 16 17 18 19 20 21 22 23 24 25 26 27 28 29 30 31 32 33 34 35 36 37 38 39 40 41 42 43 44 45 46 47 48 49 50

000
ASUS43 KTOP 241208
RWRKS

WEATHER ROUNDUP FOR KANSAS
NATIONAL WEATHER SERVICE GOODLAND KS
700 AM CDT FRI OCT 24 2014

NOTE:  "FAIR" INDICATES FEW OR NO CLOUDS BELOW 12,000 FEET WITH NO
SIGNIFICANT WEATHER AND/OR OBSTRUCTIONS TO VISIBILITY.

KSZ001>006-013>018-027>032-041>047-241300-
NORTHWEST KANSAS

CITY           SKY/WX    TMP DP  RH WIND       PRES   REMARKS
GOODLAND       MOCLDY    52  42  69 W10       30.07S
6HR MIN TEMP:  51; 6HR MAX TEMP:  58;

HAYS           CLEAR     55  48  76 SW6       30.01S
HILL CITY      PTCLDY    50  50 100 W3        30.00S FOG
6HR MIN TEMP:  50; 6HR MAX TEMP:  60;

RUSSELL        CLEAR     57  55  93 S13       30.00S FOG
6HR MIN TEMP:  57; 6HR MAX TEMP:  61;

$$

KSZ061>065-074>080-084>089-241300-
SOUTHWEST KANSAS

CITY           SKY/WX    TMP DP  RH WIND       PRES   REMARKS
DODGE CITY     CLEAR     57  54  89 SW9       30.06R
6HR MIN TEMP:  56; 6HR MAX TEMP:  62;

ELKHART          N/A     56  46  69 W10         N/A
GARDEN CITY    CLEAR     49  49 100 SW3       30.06R
6HR MIN TEMP:  49; 6HR MAX TEMP:  56; 6HR PCP: TRACE;

GREAT BEND     PTCLDY    55  52  88 S6        30.03S
LIBERAL        CLEAR     50  45  81 SW5       30.08S
PRATT          CLEAR     54  54 100 S3        30.06R FOG
$$

KSZ066>073-081>083-090>101-241300-
SOUTHEAST KANSAS

CITY           SKY/WX    TMP DP  RH WIND       PRES   REMARKS
CHANUTE        CLOUDY    57  55  93 S8        30.08S
6HR MIN TEMP:  53; 6HR MAX TEMP:  57;

COFFEYVILLE    CLOUDY    56  54  93 S7        30.09S
6HR MIN TEMP:  52; 6HR MAX TEMP:  56;

HUTCHINSON     CLOUDY    58  56  93 S6        30.05R FOG
6HR MIN TEMP:  56; 6HR MAX TEMP:  60;

MEDICINE LODGE   N/A     56  56 100 CALM      30.05R
NEWTON         PTCLDY    55  50  82 S8        30.07R
PARSONS        CLOUDY    56  55  97 CALM      30.10S
6HR MIN TEMP:  54; 6HR MAX TEMP:  57;

WICHITA INTL   MOCLDY    56  53  90 S5        30.05S FOG
6HR MIN TEMP:  56; 6HR MAX TEMP:  62;

WICHITA JABRA  CLEAR     57  56  96 S7        30.05S
6HR MIN TEMP:  55; 6HR MAX TEMP:  60;

WICHITA MCCONL CLEAR     57  57 100 S7        30.06R
WINFIELD       CLEAR     57  56  96 S8        30.08R
6HR MIN TEMP:  57; 6HR MAX TEMP:  59;

$$

KSZ007>012-019>026-033>040-048>060-102>105-241300-
NORTHEAST KANSAS

CITY           SKY/WX    TMP DP  RH WIND       PRES   REMARKS
CONCORDIA      PTCLDY    57  57 100 SW8       29.99S FOG
6HR MIN TEMP:  57; 6HR MAX TEMP:  61;

EMPORIA        MOCLDY    56  56 100 S8        30.05S FOG
6HR MIN TEMP:  56; 6HR MAX TEMP:  58;

LAWRENCE       FOG       53  52  96 SE6       30.05S VSB 1/4
6HR MIN TEMP:  53; 6HR MAX TEMP:  57;

MANHATTAN      PTCLDY    57  56  96 SW3       30.02F FOG
6HR MIN TEMP:  51; 6HR MAX TEMP:  58;

MARYSVILLE     MOCLDY    57  57 100 S8        30.00R
OLATHE IND     PTCLDY    53  53 100 S6        30.07R FOG
6HR MIN TEMP:  53; 6HR MAX TEMP:  56;

OLATHE EXE     FOG       54  54 100 S6        30.06R VSB 1/2
6HR MIN TEMP:  54; 6HR MAX TEMP:  57;

SALINA         PTCLDY    59  56  89 S8        30.02R FOG
6HR MIN TEMP:  58; 6HR MAX TEMP:  60;

TOPEKA BILLARD MOCLDY    58  57  97 S3        30.03F FOG
6HR MIN TEMP:  57; 6HR MAX TEMP:  60;

TOPEKA FORBES  MOCLDY    57  55  93 S10       30.03F FOG
6HR MIN TEMP:  56; 6HR MAX TEMP:  58;

$$



USA.gov is the U.S. government's official web portal to all federal, state and local government web resources and services.